Weather History for Lumberton, NC

Change the Weather History Date:

Friday, November 2, 2012

  Actual Average Record
Temperature  
Mean Temperature 52 °F 58 °F  
Max Temperature 72 °F 71 °F 84 °F (2004)
Min Temperature 31 °F 45 °F 31 °F (2012)
Degree Days  
Heating Degree Days 13 8  
Month to date heating degree days 31 16  
Since 1 July heating degree days 157 148  
Cooling Degree Days 0 1  
Month to date cooling degree days 0 2  
Year to date cooling degree days 2053 1896  
Growing Degree Days 2 (Base 50)    
Moisture  
Dew Point 36 °F    
Average Humidity 64    
Maximum Humidity 100    
Minimum Humidity 28    
Precipitation  
Precipitation 0.00 in 0.07 in 0.89 in (1999)
Month to date precipitation 0.00 0.15  
Year to date precipitation 39.32 37.91  
Snow  
Snow 0.00 in - - ()
Since 1 July snowfall 0.0  
Since 1 September snowfall  
Snow Depth -    
Sea Level Pressure  
Sea Level Pressure 29.90 in    
Wind  
Wind Speed 4 mph (West)    
Max Wind Speed 17 mph    
Max Gust Speed 22 mph    
Visibility 10 miles    
Events      
T = Trace of Precipitation, MM = Missing Value Source: NWS Daily Summary

Daily Weather History Graph

Daily Weather History Graph

Search for Another Location

Airport:

Trip Planner

Search our weather history database for the weather conditions in past years. The results will help you decide how hot, cold, wet, or windy it might be!

Date:

Astronomy

Nov. 02, 2012 Rise Set
Actual Time 7:37 AM EDT 6:21 PM EDT
Civil Twilight 7:11 AM EDT 6:47 PM EDT
Nautical Twilight 6:42 AM EDT 7:17 PM EDT
Astronomical Twilight 6:12 AM EDT 7:46 PM EDT
Moon 9:11 PM EDT (11/2) 10:52 AM EDT (11/2)
Length of Visible Light 11h 35m
Length of Day
10h 43m
Waning Gibbous, 87% of the Moon is Illuminated
Nov 2
Waning Gibbous
Nov 6
Last Quarter
Nov 13
New
Nov 20
First Quarter
Nov 28
Full

Hourly Weather History & Observations

Time (EDT) Temp. Windchill Dew Point Humidity Pressure Visibility Wind Dir Wind Speed Gust Speed Precip Events Conditions
12:54 AM 37.9 °F - 35.1 °F 89% 29.90 in 10.0 mi Calm Calm - N/A   Clear
1:54 AM 37.0 °F - 35.1 °F 93% 29.89 in 10.0 mi Calm Calm - N/A   Clear
2:54 AM 37.0 °F 34.5 °F 33.1 °F 86% 29.91 in 10.0 mi West 3.5 mph - N/A   Clear
3:54 AM 34.0 °F - 33.1 °F 96% 29.91 in 10.0 mi Calm Calm - N/A   Clear
4:54 AM 33.1 °F - 30.9 °F 92% 29.91 in 10.0 mi Calm Calm - N/A   Clear
5:54 AM 32.0 °F - 30.9 °F 96% 29.92 in 10.0 mi Calm Calm - N/A   Clear
6:54 AM 32.0 °F - 30.9 °F 96% 29.93 in 10.0 mi Calm Calm - N/A   Clear
7:54 AM 32.0 °F - 30.9 °F 96% 29.94 in 10.0 mi Calm Calm - N/A   Clear
8:54 AM 42.1 °F - 35.1 °F 76% 29.94 in 10.0 mi Calm Calm - N/A   Scattered Clouds
9:54 AM 50.0 °F - 32.0 °F 50% 29.94 in 10.0 mi West 4.6 mph - N/A   Partly Cloudy
10:54 AM 54.0 °F - 33.1 °F 45% 29.92 in 10.0 mi SW 5.8 mph - N/A   Overcast
11:54 AM 60.1 °F - 32.0 °F 35% 29.90 in 10.0 mi WSW 8.1 mph - N/A   Clear
12:54 PM 64.0 °F - 33.1 °F 31% 29.85 in 10.0 mi WSW 12.7 mph - N/A   Clear
1:54 PM 66.9 °F - 35.1 °F 31% 29.82 in 10.0 mi WSW 13.8 mph 18.4 mph N/A   Clear
2:54 PM 70.0 °F - 35.1 °F 28% 29.81 in 10.0 mi WSW 13.8 mph 19.6 mph N/A   Clear
3:54 PM 72.0 °F - 37.0 °F 28% 29.81 in 10.0 mi WNW 16.1 mph 21.9 mph N/A   Clear
4:54 PM 70.0 °F - 37.0 °F 30% 29.81 in 10.0 mi WNW 12.7 mph 18.4 mph N/A   Clear
5:54 PM 66.0 °F - 39.0 °F 37% 29.83 in 10.0 mi WNW 4.6 mph - N/A   Clear
6:54 PM 57.0 °F - 42.1 °F 57% 29.86 in 10.0 mi Calm Calm - N/A   Clear
7:54 PM 53.1 °F - 43.0 °F 69% 29.90 in 10.0 mi Calm Calm - N/A   Clear
8:54 PM 51.1 °F - 42.1 °F 71% 29.93 in 10.0 mi Calm Calm - N/A   Clear
9:54 PM 48.0 °F - 41.0 °F 77% 29.94 in 10.0 mi NNE 4.6 mph - N/A   Clear
10:54 PM 45.0 °F - 41.0 °F 86% 29.96 in 10.0 mi Calm Calm - N/A   Mostly Cloudy
11:54 PM 45.0 °F - 41.0 °F 86% 29.98 in 10.0 mi Calm Calm - N/A   Mostly Cloudy